My Profile
  1. Member Settings
  2. My Devices
  3. Sign Out
        More Settings
      Elev 89 ft, 28.367 °N 81.268 °W

      Orlando, FL

      Orlando Intl Airport Station84°

      Daily Observations

      DateTemp High/LowDew Pt High/LowHumidityWindMax WindWind GustPressurePrecip.Condition
      12/31/2024 73 °F / 54 °F 70 °F / 63 °F 92 % 14 mph - 29.83 in 0.31 in
      12/30/2024 75 °F / 66 °F 68 °F / 64 °F 92 % 8 mph - 29.85 in 0.02 in
      12/29/2024 77 °F / 66 °F 70 °F / 63 °F 89 % 17 mph - 29.9 in 0.03 in
      12/28/2024 79 °F / 64 °F 68 °F / 63 °F 86 % 16 mph - 30 in 0 in
      12/27/2024 77 °F / 64 °F 68 °F / 63 °F 87 % 10 mph - 30 in 0 in
      12/26/2024 78 °F / 63 °F 64 °F / 55 °F 86 % 12 mph - 30.02 in 0 in
      12/25/2024 80 °F / 56 °F 57 °F / 52 °F 85 % 10 mph - 30.06 in 0 in
      12/24/2024 69 °F / 53 °F 57 °F / 52 °F 89 % 14 mph - 30.13 in 0 in
      12/23/2024 66 °F / 53 °F 61 °F / 52 °F 85 % 16 mph - 30.15 in 0 in
      12/22/2024 68 °F / 46 °F 54 °F / 41 °F 74 % 16 mph - 30.12 in 0 in
      12/21/2024 70 °F / 47 °F 46 °F / 39 °F 70 % 12 mph - 30.02 in 0 in
      12/20/2024 62 °F / 47 °F 64 °F / 41 °F 81 % 20 mph - 29.95 in 0 in
      12/19/2024 71 °F / 51 °F 70 °F / 63 °F 88 % 8 mph - 29.98 in 0 in
      12/18/2024 81 °F / 64 °F 70 °F / 64 °F 90 % 14 mph - 30.03 in 0 in
      12/17/2024 81 °F / 64 °F 72 °F / 64 °F 89 % 17 mph - 30.1 in 0.32 in
      12/16/2024 83 °F / 65 °F 72 °F / 59 °F 92 % 16 mph - 30.08 in 0.09 in
      12/15/2024 81 °F / 59 °F 64 °F / 61 °F 79 % 18 mph - 30.17 in 0 in
      12/14/2024 80 °F / 62 °F 64 °F / 54 °F 83 % 23 mph - 30.22 in 0 in
      12/13/2024 77 °F / 56 °F 55 °F / 45 °F 72 % 22 mph - 30.25 in 0 in
      12/12/2024 76 °F / 48 °F 45 °F / 28 °F 57 % 17 mph - 30.23 in 0 in
      12/11/2024 65 °F / 45 °F 72 °F / 36 °F 78 % 23 mph - 29.92 in 0.02 in
      12/10/2024 79 °F / 51 °F 64 °F / 57 °F 79 % 17 mph - 29.97 in 0 in
      12/9/2024 82 °F / 56 °F 63 °F / 54 °F 81 % 12 mph - 30.04 in 0 in
      12/8/2024 75 °F / 48 °F 57 °F / 45 °F 73 % 8 mph - 30.13 in 0 in
      12/7/2024 70 °F / 45 °F 50 °F / 39 °F 69 % 13 mph - 30.18 in 0 in
      12/6/2024 70 °F / 44 °F 61 °F / 43 °F 82 % 14 mph - 30.07 in 0 in
      12/5/2024 72 °F / 49 °F 55 °F / 45 °F 72 % 12 mph - 30.07 in 0 in
      12/4/2024 73 °F / 44 °F 48 °F / 36 °F 70 % 13 mph - 30.23 in 0 in
      12/3/2024 69 °F / 42 °F 39 °F / 30 °F 58 % 18 mph - 30.26 in 0 in
      12/2/2024 63 °F / 42 °F 39 °F / 30 °F 52 % 16 mph - 30.17 in 0 in
      12/1/2024 66 °F / 44 °F 46 °F / 34 °F 61 % 14 mph - 30.08 in 0 in

      Charts

      Temperature
      Precipitation
      Wind
      essentialaccessibility.com
      We recognize our responsibility to use data and technology for good. We may use or share your data with our data vendors. Take control of your data.
      Glossary